Roseburg, OR

5:26 PM PDT on September 21, 2019 (GMT -0700)
Roseburg Regional

Weather History for KRBG - July, 2019

Change the Weather History Date:

Wednesday, July 10, 2019

  Actual Average Record
Temperature  
Mean Temperature 74 °F 70 °F  
Max Temperature 85 °F 83 °F 101 °F (2007)
Min Temperature 63 °F 56 °F 45 °F (1960)
Degree Days  
Heating Degree Days 0 0  
Month to date heating degree days 2 8  
Since 1 June heating degree days 37 91  
Since 1 July heating degree days 2 8  
Cooling Degree Days 9 5  
Month to date cooling degree days 36 44  
Year to date cooling degree days 187 114  
Since 1 June cooling degree days 158 94  
Growing Degree Days 22 (Base 50)    
Moisture  
Dew Point 58 °F    
Average Humidity 65    
Maximum Humidity 87    
Minimum Humidity 43    
Precipitation  
Precipitation 0.00 in 0.02 in 0.12 in (1966)
Month to date precipitation T 0.20  
Year to date precipitation 21.67 18.96  
Sea Level Pressure  
Sea Level Pressure 30.05 in    
Wind  
Wind Speed 5 mph (North)    
Max Wind Speed 14 mph    
Max Gust Speed 19 mph    
Visibility 10 miles    
Events      
T = Trace of Precipitation, MM = Missing Value Source: NWS Daily Summary

Daily Weather History Graph

Daily Weather History Graph

Search for Another Location

Airport or City:

Astronomy

Jul. 10, 2019 Rise Set
Actual Time 5:43 AM PDT 8:54 PM PDT
Civil Twilight 5:08 AM PDT 9:28 PM PDT
Nautical Twilight 4:23 AM PDT 10:13 PM PDT
Astronomical Twilight 3:29 AM PDT 11:07 PM PDT
Moon 3:00 PM PDT (7/10) 1:33 AM PDT (7/10)
Length of Visible Light 16h 20m
Length of Day
15h 11m
Waxing Gibbous, 65% of the Moon is Illuminated
Jul 10
Waxing Gibbous
Jul 16
Full
Jul 24
Last Quarter
Jul 31
New
Aug 7
First Quarter

Hourly Weather History & Observations

Time (PDT) Temp. Heat Index Dew Point Humidity Pressure Visibility Wind Dir Wind Speed Gust Speed Precip Events Conditions
12:17 AM 66.9 °F - 59.0 °F 76% 30.02 in 10.0 mi North 4.6 mph - 0.00 in   Overcast
12:53 AM 66.0 °F - 59.0 °F 78% 30.01 in 10.0 mi Calm Calm - 0.00 in   Overcast
1:53 AM 66.0 °F - 59.0 °F 78% 30.02 in 10.0 mi NNW 4.6 mph - N/A   Mostly Cloudy
2:53 AM 64.9 °F - 59.0 °F 81% 30.02 in 10.0 mi NNE 3.5 mph - N/A   Mostly Cloudy
3:53 AM 64.0 °F - 57.9 °F 80% 30.02 in 10.0 mi Calm Calm - N/A   Overcast
4:53 AM 64.0 °F - 59.0 °F 84% 30.03 in 10.0 mi Calm Calm - N/A   Scattered Clouds
5:53 AM 63.0 °F - 57.9 °F 84% 30.04 in 10.0 mi Calm Calm - N/A   Mostly Cloudy
6:53 AM 64.0 °F - 60.1 °F 87% 30.04 in 10.0 mi Calm Calm - N/A   Overcast
7:53 AM 64.9 °F - 60.1 °F 84% 30.05 in 10.0 mi Calm Calm - N/A   Overcast
8:53 AM 66.0 °F - 59.0 °F 78% 30.06 in 10.0 mi Calm Calm - N/A   Overcast
9:53 AM 71.1 °F - 59.0 °F 66% 30.06 in 10.0 mi NE 4.6 mph - N/A   Overcast
10:53 AM 75.9 °F - 57.9 °F 54% 30.05 in 10.0 mi Variable 3.5 mph - N/A   Mostly Cloudy
11:53 AM 75.9 °F - 57.9 °F 54% 30.04 in 10.0 mi NNW 4.6 mph - N/A   Overcast
12:53 PM 80.1 °F 80.4 °F 57.0 °F 45% 30.03 in 10.0 mi Calm Calm - N/A   Partly Cloudy
1:53 PM 80.1 °F 80.6 °F 57.9 °F 47% 30.03 in 10.0 mi NNW 8.1 mph - N/A   Mostly Cloudy
2:53 PM 82.9 °F 82.4 °F 57.0 °F 41% 30.03 in 10.0 mi Variable 4.6 mph - N/A   Mostly Cloudy
3:53 PM 82.9 °F 82.6 °F 57.9 °F 42% 30.03 in 10.0 mi NNW 10.4 mph 16.1 mph N/A   Overcast
4:53 PM 81.0 °F 81.3 °F 59.0 °F 47% 30.03 in 10.0 mi NW 13.8 mph - N/A   Mostly Cloudy
5:53 PM 79.0 °F - 60.1 °F 52% 30.04 in 10.0 mi NNW 9.2 mph - N/A   Overcast
6:53 PM 75.9 °F - 59.0 °F 56% 30.06 in 10.0 mi NNW 10.4 mph - N/A   Scattered Clouds
7:53 PM 73.0 °F - 57.9 °F 59% 30.07 in 10.0 mi North 9.2 mph - N/A   Clear
8:53 PM 72.0 °F - 57.9 °F 61% 30.09 in 10.0 mi North 13.8 mph - N/A   Mostly Cloudy
9:53 PM 70.0 °F - 57.9 °F 65% 30.11 in 10.0 mi North 6.9 mph - N/A   Overcast
10:53 PM 69.1 °F - 57.9 °F 68% 30.12 in 10.0 mi North 4.6 mph - N/A   Mostly Cloudy
11:53 PM 68.0 °F - 57.9 °F 70% 30.12 in 10.0 mi North 5.8 mph - N/A   Mostly Cloudy